Home   Weather   Friesoythe   Past weeks

Flag for Germany Past Weather in Friesoythe, Lower Saxony, Germany — Yesterday and Last 2 Weeks

Now
46 °F

Cool.


Feels Like: 44 °F
Forecast: 46 / 51 °F
Wind: 6 mph from East

Location: Meppen-Mil

Current Time: May 1, 2017 at 6:32:34 am

Latest Report: May 1, 2017 at 5:20 am


Visibility: N/A

Pressure: 29.77 "Hg

Humidity: 62%

Dew Point: 34 °F

Location of FriesoytheLocation

Past Weather in Friesoythe — Graph

°F

Friesoythe Temperature Yesterday

Maximum temperature yesterday: 63 °F (at 3:20 pm)
Minimum temperature yesterday: 36 °F (at 5:20 am)
Average temperature yesterday: 51 °F

High & Low Weather Summary for the Past Weeks

 TemperatureHumidityPressure
High63 °F (Apr 30, 3:20 pm)100% (Apr 26, 7:20 am)30.63 "Hg (Apr 26, 7:20 am)
Low25 °F (Apr 20, 4:20 am)30% (Apr 20, 2:20 pm)29.62 "Hg (Apr 25, 4:20 am)
Average44 °F67%30.11 "Hg
* Reported Apr 16 4:20 am — May 1 4:20 am, Friesoythe, Weather by CustomWeather, © 2017

Note: Actual official high and low records may vary slightly from our data, if they occured in-between our weather recording intervals... More about our weather records

Advertising

Friesoythe Weather History for the Previous 24 Hours

Scroll right to see more
 ConditionsComfort  
Time TempWeatherWind HumidityBarometerVisibility
4:20 am
Mon, May 1
46 °FCool.6 mph62%29.80 "HgN/A
3:20 am48 °FCool.7 mph58%29.77 "HgN/A
2:20 am50 °FCool.7 mph54%29.80 "HgN/A
1:20 am52 °FCool.6 mph47%29.80 "HgN/A
12:20 am54 °FCool.6 mph44%29.80 "HgN/A
11:20 pm
Sun, Apr 30
54 °FCool.6 mph44%29.80 "HgN/A
10:20 pm55 °FRefreshingly cool.6 mph38%29.83 "HgN/A
9:20 pm55 °FRefreshingly cool.7 mph41%29.80 "HgN/A
8:20 pm59 °FRefreshingly cool.7 mph36%29.80 "HgN/A
7:20 pm61 °FRefreshingly cool.8 mph31%29.80 "HgN/A
6:20 pm61 °FRefreshingly cool.6 mph31%29.80 "HgN/A
5:20 pm63 °FMild.7 mph32%29.83 "HgN/A
4:20 pm63 °FMild.7 mph32%29.86 "HgN/A
3:20 pm63 °FMild.9 mph32%29.86 "HgN/A
2:20 pm61 °FRefreshingly cool.8 mph36%29.89 "HgN/A
1:20 pm59 °FRefreshingly cool.7 mph39%29.92 "HgN/A
12:20 pm57 °FRefreshingly cool.7 mph39%29.95 "HgN/A
11:20 am55 °FRefreshingly cool.8 mph44%29.98 "HgN/A
10:20 am52 °FCool.7 mph47%29.98 "HgN/A
9:20 am48 °FCool.6 mph54%30.01 "HgN/A
8:20 am46 °FCool.5 mph57%30.04 "HgN/A
7:20 am41 °FQuite cool.3 mph66%30.04 "HgN/A
6:20 am36 °FChilly.2 mph81%30.04 "HgN/A
Weather by CustomWeather, © 2017

See weather overviewHow to use our weather pages